Tracking 20092 objects as of 14-Dec-2019
HD Live streaming from Space Station
objects crossing your sky now

CZ-3B R/B

Track CZ-3B R/B now!
10-day predictions


NORAD ID: 41195
Int'l Code: 2015-083B
Perigee: 152.5 km
Apogee: 9,958.1 km
Inclination: 22.7 °
Period: 202.6 minutes
Semi major axis: 11426 km
RCS: Unknown
Launch date: December 28, 2015
Source: People's Republic of China (PRC)
Launch site: Xichang Space Center, China (XSC)

Note: This is a ROCKET BODY
aabbcc
Your satellite tracking list
Your tracking list is empty




NASA's NSSDC Master Catalog

Two Line Element Set (TLE):
1 41195U 15083B   19347.63305920  .00455529 -28284-6  53917-3 0  9998
2 41195  22.6805  39.6186 4290783  84.2454 321.7108  7.10796567 64716
Source of the keplerian elements: AFSPC